This is the latest recevied weather packets stored in our database for station/object KO4LFZ. If no packets are shown the sender has not sent any weather packets the latest 10 day(s).
| Time | Temp. | Humidity | Pressure | Rain* | Wind** | Luminosity | Snow |
|---|---|---|---|---|---|---|---|
| 1777645484 | 15° C | 57% | 1017.3 hPa | 0 mm | - | 597 W/m² | - |
| 1777645179 | 14.44° C | 61% | 1017.2 hPa | 0 mm | - | 587 W/m² | - |
| 1777644875 | 14.44° C | 64% | 1017.2 hPa | 0 mm | - | 564 W/m² | - |
| 1777644573 | 14.44° C | 62% | 1016.8 hPa | 0 mm | - | 540 W/m² | - |
| 1777644269 | 13.89° C | 60% | 1017.1 hPa | 0 mm | - | 520 W/m² | - |
| 1777643965 | 14.44° C | 62% | 1017.1 hPa | 0 mm | - | 486 W/m² | - |
| 1777643663 | 14.44° C | 67% | 1017.2 hPa | 0 mm | - | 475 W/m² | - |
| 1777643360 | 13.89° C | 73% | 1017 hPa | 0 mm | - | 501 W/m² | - |
| 1777643056 | 14.44° C | 75% | 1017.2 hPa | 0 mm | - | 479 W/m² | - |
| 1777642753 | 13.89° C | 77% | 1017 hPa | 0 mm | - | 422 W/m² | - |
| 1777642450 | 13.89° C | 78% | 1017 hPa | 0 mm | - | 376 W/m² | - |
| 1777642146 | 13.89° C | 80% | 1017 hPa | 0 mm | - | 342 W/m² | - |
| 1777641843 | 13.89° C | 81% | 1017.1 hPa | 0 mm | - | 313 W/m² | - |
| 1777641538 | 13.33° C | 81% | 1017 hPa | 0 mm | - | 296 W/m² | - |
| 1777641232 | 13.33° C | 83% | 1016.9 hPa | 0 mm | - | 254 W/m² | - |
| 1777640930 | 13.33° C | 84% | 1016.7 hPa | 0 mm | - | 254 W/m² | - |
| 1777640626 | 12.78° C | 84% | 1016.8 hPa | 0 mm | - | 229 W/m² | - |
| 1777640323 | 12.78° C | 85% | 1016.9 hPa | 0 mm | - | 197 W/m² | - |
| 1777640019 | 13.33° C | 86% | 1016.6 hPa | 0 mm | - | 190 W/m² | - |
| 1777639716 | 12.78° C | 86% | 1016.5 hPa | 0 mm | - | 197 W/m² | - |
| 1777639415 | 12.78° C | 86% | 1016.6 hPa | 0 mm | - | 180 W/m² | - |
| 1777639114 | 12.78° C | 87% | 1016.7 hPa | 0 mm | - | 154 W/m² | - |
| 1777638812 | 12.22° C | 87% | 1016.8 hPa | 0 mm | - | 137 W/m² | - |
| 1777638512 | 12.22° C | 89% | 1016.5 hPa | 0 mm | - | 124 W/m² | - |
| 1777638209 | 11.67° C | 90% | 1016.5 hPa | 0 mm | - | 87 W/m² | - |
* Rain latest hour (hover to see other rain measurements)
** Current wind speed in m/s (hover to see current wind gust speed)